FENGYUN 1C DEB, 30532

Orbit data source: Space-Track

FENGYUN 1C DEB, 30532 is space debris in SSO originally from a launch on Mon, 10 May 1999 UTC launched from the Taiyaun Space Center, China (TSC). Fengyun 1C debris stems from the Chinese weather satellite Fengyun-1C, which was intentionally destroyed by a Chinese anti-satellite missile in 2007. This event dramatically increased the amount of space debris, with thousands of trackable fragments posing hazards to satellites and human spaceflight. The Fengyun 1C debris cloud has become a focal point in discussions about space sustainability and the need for international regulations to prevent the creation of new debris.

Loading next visibility...
Identifier
30532, 1999-025AJW
Orbit
SSO
Country
Flag of CNCN / PRC
Related business
Manufacturer
Unknown
Mission
Spacecraft
Bus & Motor
Unknown
Mass
Unknown
Launch date (UTC)
1999-05-10 (27 years ago)
Launch vehicle
Unknown
Launch site
Taiyaun Space Center, China (TSC)
Object type
Payload
Rocket body
Debris
Shape & HBR
Unknown shape, 0.1 m
Radar Cross Section
Small (<0.1 m²)

Expand to show TLE details & history
Last TLE update: 1 day ago

TLE from 1 day ago
0 FENGYUN 1C DEB
1 30532U 99025AJW 25349.06180623  .00208167  00000-0  74936-2 0  9992
2 30532  96.9614  34.1466 0023688 250.4315 109.4368 15.27445616977231
Epoch: 2025-12-15T01:29Z
TLE epoch observation values (Epoch: 2025-12-15T01:29:00.058Z)
Latitude
0.00003°
Longitude
-72.06942°
Altitude
492.008 km
Speed
7.616 km/s
True Right ascension
02h 16m 35s
True Declination
0° 00' 00"
Sunlit
Object was in full shadow at epoch
Visualization orbit readout
Latitude
Unknown
Longitude
Unknown
Altitude
Unknown
Speed
Unknown
Apparent Right ascension
Unknown
Apparent Declination
Unknown
Sunlit
N/A
Visualization observer readout
Local Sidereal Time
04:34:39
Azimuth
Unknown
Elevation
Unknown
Doppler factor
Unknown
Orbital elements
Apogee altitude
496.635 km
Perigee altitude
464.142 km
Semi-major axis
6,858.526 km
Eccentricity
0.00237
Inclination
96.9614°
RAAN
34.1466°
Arg. of periapsis
250.4315°
True anomaly
109.69252°
Mean anomaly
109.4368°
Eccentric anomaly
109.56469°
Mean motion
3.82118 °/min
Orbital period
94.21 mins
BSTAR
0.0074936
Loading maneuver chart data...
Computing Atmospheric mass density...
Loading historical data...
Loading historical data...
Loading historical data...
Loading historical data...
Loading historical data...
Loading historical data...
Loading historical data...

Documentation

Showing up to 5 results
|